This is the latest recevied weather packets stored in our database for station/object KF0DL. If no packets are shown the sender has not sent any weather packets the latest 10 day(s).
| Time | Temp. | Humidity | Pressure | Rain* | Wind** | Luminosity | Snow |
|---|---|---|---|---|---|---|---|
| 1777832001 | 20.56° C | 22% | 1013.4 hPa | 0 mm | - | - | - |
| 1777831706 | 20.56° C | 21% | 1013.4 hPa | 0 mm | - | - | - |
| 1777831413 | 20.56° C | 22% | 1013.4 hPa | 0 mm | - | - | - |
| 1777831100 | 20.56° C | 23% | 1013.7 hPa | 0 mm | - | - | - |
| 1777830807 | 20.56° C | 23% | 1013.7 hPa | 0 mm | - | - | - |
| 1777830515 | 20.56° C | 22% | 1013.7 hPa | 0 mm | - | - | - |
| 1777830201 | 20.56° C | 23% | 1014.2 hPa | 0 mm | - | - | - |
| 1777829916 | 20° C | 23% | 1014.2 hPa | 0 mm | - | - | - |
| 1777829603 | 20° C | 24% | 1014.2 hPa | 0 mm | - | - | - |
| 1777829311 | 20° C | 24% | 1014.2 hPa | 0 mm | - | - | - |
| 1777829019 | 20° C | 23% | 1014.7 hPa | 0 mm | - | - | - |
| 1777828706 | 19.44° C | 23% | 1014.7 hPa | 0 mm | - | - | - |
| 1777828119 | 20° C | 22% | 1014.7 hPa | 0 mm | - | - | - |
| 1777827806 | 20° C | 24% | 1014.7 hPa | 0 mm | - | - | - |
| 1777827513 | 19.44° C | 24% | 1014.7 hPa | 0 mm | - | - | - |
| 1777827204 | 19.44° C | 25% | 1015.2 hPa | 0 mm | - | - | - |
| 1777826911 | 18.89° C | 25% | 1015.2 hPa | 0 mm | - | - | - |
| 1777826619 | 18.89° C | 25% | 1015.2 hPa | 0 mm | - | - | - |
| 1777826304 | 18.89° C | 26% | 1015.3 hPa | 0 mm | - | - | - |
| 1777826014 | 18.33° C | 25% | 1015.3 hPa | 0 mm | - | - | - |
| 1777825700 | 18.33° C | 26% | 1015.7 hPa | 0 mm | - | - | - |
| 1777825409 | 18.33° C | 26% | 1015.7 hPa | 0 mm | - | - | - |
| 1777825116 | 17.78° C | 26% | 1015.7 hPa | 0 mm | - | - | - |
| 1777824801 | 17.78° C | 28% | 1015.9 hPa | 0 mm | - | - | - |
| 1777824508 | 17.22° C | 28% | 1015.9 hPa | 0 mm | - | - | - |
* Rain latest hour (hover to see other rain measurements)
** Current wind speed in m/s (hover to see current wind gust speed)